CTN656 LDZA-LDSP

Flight info

Callsign CTN656
Flight time 0h 44m
Altitude 16000
Route NIVES Y137 PALEZ/N0278F150 L862 SPL
Aircraft AT76/M-SDFGIRY/S

Departure

Time 2026-05-04 18:14
Airport Zagreb Franjo Tuđman International Airport (LDZA)

Arrival

Time 2026-05-04 18:58
Airport Split Saint Jerome Airport (LDSP)
Time Latitude Longitude Altitude Speed Heading
2026-05-04 17:44 45.73469 16.06166 355 ft 0 kts 136°
2026-05-04 18:05 45.73486 16.06142 355 ft 4 kts 131°
2026-05-04 18:06 45.73506 16.06079 364 ft 4 kts 60°
2026-05-04 18:06 45.73501 16.06067 371 ft 1 kts 46°
2026-05-04 18:06 45.73500 16.06066 370 ft 0 kts 46°
2026-05-04 18:08 45.73504 16.06073 355 ft 4 kts 46°
2026-05-04 18:08 45.73542 16.06130 355 ft 11 kts 46°
2026-05-04 18:08 45.73602 16.06221 355 ft 14 kts 47°
2026-05-04 18:09 45.73751 16.06449 355 ft 17 kts 46°
2026-05-04 18:09 45.73930 16.06723 359 ft 20 kts 47°
2026-05-04 18:10 45.74027 16.06868 360 ft 20 kts 46°
2026-05-04 18:10 45.74116 16.07005 359 ft 18 kts 47°
2026-05-04 18:10 45.74204 16.07139 362 ft 16 kts 47°
2026-05-04 18:10 45.74285 16.07261 356 ft 17 kts 45°
2026-05-04 18:11 45.74371 16.07391 356 ft 18 kts 47°
2026-05-04 18:11 45.74417 16.07463 364 ft 5 kts 47°
2026-05-04 18:11 45.74460 16.07530 360 ft 12 kts 47°
2026-05-04 18:11 45.74522 16.07623 361 ft 10 kts 45°
2026-05-04 18:12 45.74562 16.07657 355 ft 4 kts 354°
2026-05-04 18:12 45.74597 16.07624 358 ft 7 kts 316°
2026-05-04 18:12 45.74639 16.07565 354 ft 10 kts 316°
2026-05-04 18:12 45.74682 16.07491 354 ft 9 kts 285°
2026-05-04 18:13 45.74659 16.07433 354 ft 5 kts 225°
2026-05-04 18:13 45.74566 16.07299 357 ft 48 kts 226°
2026-05-04 18:13 45.73590 16.05853 566 ft 136 kts 223°
2026-05-04 18:14 45.72798 16.04807 747 ft 170 kts 221°
2026-05-04 18:14 45.71922 16.03685 1271 ft 169 kts 225°
2026-05-04 18:14 45.71119 16.02477 1771 ft 166 kts 230°
2026-05-04 18:15 45.69605 16.00019 2691 ft 164 kts 232°
2026-05-04 18:15 45.68092 15.97499 3488 ft 169 kts 230°
2026-05-04 18:15 45.67307 15.96236 3896 ft 171 kts 229°
2026-05-04 18:16 45.66508 15.94978 4299 ft 171 kts 222°
2026-05-04 18:16 45.65407 15.94457 4717 ft 172 kts 179°
2026-05-04 18:16 45.64201 15.94599 5094 ft 174 kts 179°
2026-05-04 18:17 45.61792 15.94747 5996 ft 173 kts 181°
2026-05-04 18:17 45.60583 15.94757 6413 ft 174 kts 182°
2026-05-04 18:17 45.58156 15.94641 7209 ft 176 kts 185°
2026-05-04 18:18 45.56930 15.94542 7588 ft 177 kts 186°
2026-05-04 18:18 45.55698 15.94430 7966 ft 178 kts 186°
2026-05-04 18:18 45.54455 15.94310 8348 ft 180 kts 186°
2026-05-04 18:18 45.53203 15.94180 8734 ft 181 kts 186°
2026-05-04 18:19 45.50665 15.93913 9504 ft 184 kts 186°
2026-05-04 18:19 45.49380 15.93775 9883 ft 186 kts 186°
2026-05-04 18:19 45.48089 15.93634 10232 ft 187 kts 186°
2026-05-04 18:20 45.46791 15.93491 10585 ft 188 kts 186°
2026-05-04 18:20 45.45500 15.93348 10927 ft 189 kts 186°
2026-05-04 18:20 45.44169 15.93201 11284 ft 190 kts 186°
2026-05-04 18:20 45.42844 15.93053 11624 ft 192 kts 186°
2026-05-04 18:21 45.41507 15.92909 11969 ft 193 kts 186°
2026-05-04 18:21 45.40185 15.92765 12301 ft 194 kts 186°
2026-05-04 18:21 45.38833 15.92617 12637 ft 195 kts 186°
2026-05-04 18:21 45.37473 15.92469 12974 ft 196 kts 186°
2026-05-04 18:22 45.36103 15.92319 13309 ft 198 kts 185°
2026-05-04 18:22 45.34728 15.92169 13641 ft 199 kts 186°
2026-05-04 18:22 45.33344 15.92018 13959 ft 200 kts 186°
2026-05-04 18:22 45.31949 15.91864 14249 ft 201 kts 185°
2026-05-04 18:23 45.30547 15.91712 14529 ft 203 kts 186°
2026-05-04 18:23 45.29138 15.91559 14813 ft 204 kts 185°
2026-05-04 18:23 45.27720 15.91405 15103 ft 205 kts 186°
2026-05-04 18:23 45.26294 15.91251 15384 ft 206 kts 186°
2026-05-04 18:24 45.24859 15.91095 15664 ft 207 kts 186°
2026-05-04 18:24 45.23412 15.90937 15883 ft 212 kts 186°
2026-05-04 18:24 45.21930 15.90657 15963 ft 219 kts 198°
2026-05-04 18:24 45.20477 15.89838 16005 ft 231 kts 205°
2026-05-04 18:25 45.18997 15.88853 16024 ft 240 kts 205°
2026-05-04 18:25 45.17979 15.88175 16030 ft 246 kts 205°
2026-05-04 18:25 45.16390 15.87180 16034 ft 253 kts 203°
2026-05-04 18:25 45.14747 15.86218 16035 ft 259 kts 202°
2026-05-04 18:26 45.13066 15.85251 16044 ft 263 kts 202°
2026-05-04 18:26 45.11363 15.84261 16043 ft 266 kts 203°
2026-05-04 18:26 45.09641 15.83259 16043 ft 269 kts 202°
2026-05-04 18:26 45.07905 15.82247 16044 ft 270 kts 202°
2026-05-04 18:27 45.06161 15.81230 16056 ft 272 kts 202°
2026-05-04 18:27 45.04405 15.80208 16052 ft 273 kts 202°
2026-05-04 18:27 45.02648 15.79185 16053 ft 274 kts 202°
2026-05-04 18:27 45.00883 15.78159 16054 ft 274 kts 202°
2026-05-04 18:28 44.99126 15.77139 16051 ft 270 kts 203°
2026-05-04 18:28 44.97413 15.76145 16059 ft 264 kts 202°
2026-05-04 18:28 44.95730 15.75164 16060 ft 259 kts 202°
2026-05-04 18:28 44.94076 15.74200 16062 ft 255 kts 203°
2026-05-04 18:29 44.92441 15.73260 16062 ft 253 kts 202°
2026-05-04 18:29 44.90818 15.72331 16070 ft 251 kts 202°
2026-05-04 18:29 44.89209 15.71403 16072 ft 249 kts 202°
2026-05-04 18:29 44.87612 15.70487 16072 ft 248 kts 202°
2026-05-04 18:30 44.84429 15.68657 16080 ft 246 kts 202°
2026-05-04 18:30 44.82843 15.67747 16083 ft 246 kts 202°
2026-05-04 18:30 44.81261 15.66838 16084 ft 246 kts 202°
2026-05-04 18:31 44.79679 15.65930 16085 ft 245 kts 202°
2026-05-04 18:31 44.78097 15.65024 16087 ft 246 kts 202°
2026-05-04 18:31 44.76512 15.64116 16093 ft 246 kts 202°
2026-05-04 18:31 44.74927 15.63209 16090 ft 246 kts 202°
2026-05-04 18:32 44.73344 15.62303 16095 ft 246 kts 202°
2026-05-04 18:32 44.71761 15.61397 16096 ft 246 kts 202°
2026-05-04 18:32 44.70175 15.60489 16095 ft 246 kts 202°
2026-05-04 18:32 44.68591 15.59584 16105 ft 246 kts 202°
2026-05-04 18:33 44.67025 15.58693 16094 ft 246 kts 202°
2026-05-04 18:33 44.65423 15.57777 16094 ft 246 kts 202°
2026-05-04 18:33 44.63836 15.56875 16095 ft 246 kts 202°
2026-05-04 18:33 44.62257 15.55972 16100 ft 245 kts 202°
2026-05-04 18:34 44.60696 15.55084 16109 ft 245 kts 202°
2026-05-04 18:34 44.59114 15.54179 16101 ft 246 kts 202°
2026-05-04 18:34 44.57471 15.53680 16105 ft 244 kts 175°
2026-05-04 18:34 44.55849 15.54337 16106 ft 244 kts 158°
2026-05-04 18:35 44.54330 15.55419 16110 ft 245 kts 153°
2026-05-04 18:35 44.52844 15.56606 16106 ft 246 kts 152°
2026-05-04 18:35 44.51354 15.57793 16110 ft 247 kts 153°
2026-05-04 18:35 44.49844 15.58937 16102 ft 247 kts 154°
2026-05-04 18:36 44.48315 15.60050 16102 ft 248 kts 154°
2026-05-04 18:36 44.46786 15.61163 16105 ft 248 kts 154°
2026-05-04 18:36 44.45258 15.62277 16106 ft 248 kts 154°
2026-05-04 18:36 44.43727 15.63388 16110 ft 248 kts 154°
2026-05-04 18:37 44.42197 15.64504 16109 ft 248 kts 154°
2026-05-04 18:37 44.40665 15.65619 16107 ft 248 kts 154°
2026-05-04 18:37 44.39135 15.66733 16107 ft 248 kts 154°
2026-05-04 18:37 44.37598 15.67847 16108 ft 249 kts 154°
2026-05-04 18:38 44.36059 15.68952 16110 ft 249 kts 154°
2026-05-04 18:38 44.34522 15.70064 16110 ft 249 kts 154°
2026-05-04 18:38 44.32987 15.71172 16108 ft 249 kts 154°
2026-05-04 18:38 44.31448 15.72286 16111 ft 249 kts 154°
2026-05-04 18:39 44.29909 15.73396 16113 ft 249 kts 154°
2026-05-04 18:39 44.28370 15.74500 16112 ft 249 kts 154°
2026-05-04 18:39 44.26831 15.75606 16113 ft 249 kts 154°
2026-05-04 18:39 44.25295 15.76721 16113 ft 249 kts 154°
2026-05-04 18:40 44.23758 15.77831 16110 ft 249 kts 154°
2026-05-04 18:40 44.22215 15.78943 16113 ft 249 kts 154°
2026-05-04 18:40 44.20675 15.80052 16111 ft 250 kts 154°
2026-05-04 18:40 44.19133 15.81162 16109 ft 249 kts 154°
2026-05-04 18:41 44.17589 15.82271 16109 ft 250 kts 154°
2026-05-04 18:41 44.16043 15.83384 16109 ft 250 kts 154°
2026-05-04 18:41 44.14497 15.84495 16109 ft 250 kts 154°
2026-05-04 18:41 44.12950 15.85606 16109 ft 250 kts 154°
2026-05-04 18:42 44.11402 15.86712 16107 ft 250 kts 154°
2026-05-04 18:42 44.09855 15.87822 16109 ft 250 kts 154°
2026-05-04 18:42 44.08309 15.88931 16107 ft 250 kts 154°
2026-05-04 18:42 44.06763 15.90040 16114 ft 250 kts 154°
2026-05-04 18:43 44.05215 15.91150 16111 ft 250 kts 154°
2026-05-04 18:43 44.03669 15.92253 16106 ft 250 kts 154°
2026-05-04 18:43 44.02122 15.93360 16108 ft 250 kts 154°
2026-05-04 18:43 44.00595 15.94454 16106 ft 250 kts 154°
2026-05-04 18:44 43.99048 15.95557 16108 ft 250 kts 154°
2026-05-04 18:44 43.97996 15.96309 15940 ft 257 kts 154°
2026-05-04 18:44 43.95824 15.97857 15451 ft 272 kts 154°
2026-05-04 18:44 43.94115 15.99076 15086 ft 280 kts 154°
2026-05-04 18:45 43.92364 16.00326 14722 ft 286 kts 154°
2026-05-04 18:45 43.90582 16.01597 14369 ft 290 kts 154°
2026-05-04 18:45 43.88781 16.02882 14009 ft 293 kts 154°
2026-05-04 18:45 43.86952 16.04126 13619 ft 290 kts 160°
2026-05-04 18:46 43.84957 16.04519 13220 ft 292 kts 180°
2026-05-04 18:46 43.82930 16.04427 12832 ft 291 kts 183°
2026-05-04 18:46 43.80918 16.04282 12444 ft 288 kts 183°
2026-05-04 18:46 43.78923 16.04201 12063 ft 286 kts 181°
2026-05-04 18:47 43.76944 16.04201 11688 ft 283 kts 180°
2026-05-04 18:47 43.74979 16.04212 11305 ft 282 kts 180°
2026-05-04 18:47 43.73025 16.04207 10950 ft 280 kts 180°
2026-05-04 18:47 43.71078 16.04206 10588 ft 279 kts 180°
2026-05-04 18:48 43.69138 16.04202 10227 ft 278 kts 180°
2026-05-04 18:48 43.67209 16.04197 9858 ft 276 kts 180°
2026-05-04 18:48 43.65293 16.04192 9465 ft 275 kts 180°
2026-05-04 18:48 43.63388 16.04188 9074 ft 273 kts 180°
2026-05-04 18:49 43.61491 16.04185 8668 ft 272 kts 180°
2026-05-04 18:49 43.59602 16.04183 8261 ft 271 kts 180°
2026-05-04 18:49 43.57723 16.04178 7861 ft 269 kts 180°
2026-05-04 18:49 43.55861 16.04172 7459 ft 266 kts 180°
2026-05-04 18:50 43.54020 16.04170 7076 ft 262 kts 180°
2026-05-04 18:50 43.52216 16.04166 6690 ft 257 kts 180°
2026-05-04 18:50 43.50454 16.04161 6290 ft 251 kts 180°
2026-05-04 18:50 43.48723 16.04156 5888 ft 243 kts 181°
2026-05-04 18:51 43.47117 16.04157 5479 ft 221 kts 181°
2026-05-04 18:51 43.45625 16.04159 5076 ft 208 kts 181°
2026-05-04 18:51 43.44205 16.04157 4671 ft 200 kts 181°
2026-05-04 18:51 43.42830 16.04165 4274 ft 195 kts 181°
2026-05-04 18:52 43.41491 16.04250 3872 ft 191 kts 176°
2026-05-04 18:52 43.40204 16.04573 3474 ft 187 kts 156°
2026-05-04 18:52 43.39305 16.05888 3124 ft 193 kts 110°
2026-05-04 18:52 43.39318 16.07617 2947 ft 177 kts 65°
2026-05-04 18:53 43.40142 16.08750 2883 ft 166 kts 32°
2026-05-04 18:53 43.41115 16.09644 2844 ft 171 kts 34°
2026-05-04 18:53 43.42084 16.10602 2824 ft 171 kts 37°
2026-05-04 18:53 43.42992 16.11622 2810 ft 164 kts 41°
2026-05-04 18:54 43.43802 16.12645 2803 ft 151 kts 44°
2026-05-04 18:54 43.44492 16.13616 2769 ft 140 kts 47°
2026-05-04 18:54 43.45170 16.14594 2592 ft 142 kts 46°
2026-05-04 18:54 43.45851 16.15581 2409 ft 142 kts 48°
2026-05-04 18:55 43.46403 16.16664 2251 ft 137 kts 75°
2026-05-04 18:55 43.47361 16.18773 1937 ft 135 kts 44°
2026-05-04 18:55 43.48037 16.19670 1796 ft 135 kts 46°
2026-05-04 18:56 43.48674 16.20594 1661 ft 129 kts 49°
2026-05-04 18:56 43.49251 16.21517 1470 ft 126 kts 51°
2026-05-04 18:56 43.49793 16.22440 1273 ft 122 kts 51°
2026-05-04 18:56 43.50312 16.23342 1044 ft 118 kts 51°
2026-05-04 18:57 43.50809 16.24220 796 ft 114 kts 52°
2026-05-04 18:57 43.51261 16.25083 591 ft 110 kts 54°
2026-05-04 18:57 43.51732 16.25934 458 ft 114 kts 50°
2026-05-04 18:57 43.52237 16.26796 296 ft 112 kts 52°
2026-05-04 18:58 43.52687 16.27634 194 ft 110 kts 51°
2026-05-04 18:58 43.53159 16.28464 125 ft 111 kts 52°
2026-05-04 18:58 43.53621 16.29297 82 ft 99 kts 52°
2026-05-04 18:58 43.53852 16.29709 75 ft 40 kts 52°
2026-05-04 18:59 43.53986 16.29955 69 ft 25 kts 52°
2026-05-04 18:59 43.54049 16.30099 71 ft 7 kts 99°
2026-05-04 18:59 43.54013 16.30100 70 ft 7 kts 200°
2026-05-04 18:59 43.53977 16.30083 63 ft 4 kts 196°
2026-05-04 19:00 43.53929 16.30065 60 ft 9 kts 194°
2026-05-04 19:00 43.53880 16.30013 61 ft 8 kts 234°
2026-05-04 19:00 43.53846 16.29952 65 ft 8 kts 232°
2026-05-04 19:00 43.53814 16.29895 65 ft 7 kts 233°
2026-05-04 19:01 43.53784 16.29840 63 ft 7 kts 232°
2026-05-04 19:01 43.53754 16.29786 61 ft 7 kts 232°
2026-05-04 19:01 43.53725 16.29734 65 ft 7 kts 232°
2026-05-04 19:01 43.53698 16.29684 65 ft 6 kts 233°
2026-05-04 19:02 43.53672 16.29638 62 ft 6 kts 233°
2026-05-04 19:02 43.53656 16.29608 65 ft 1 kts 233°
2026-05-04 19:02 43.53647 16.29591 62 ft 3 kts 233°
2026-05-04 19:02 43.53633 16.29565 63 ft 4 kts 233°
2026-05-04 19:03 43.53610 16.29534 61 ft 5 kts 205°
2026-05-04 19:03 43.53591 16.29550 60 ft 2 kts 105°
2026-05-04 19:03 43.53585 16.29569 61 ft 0 kts 113°